| time (UTC) | temp F | wind direction | speed knots | gust knots | rain 1hr in | rain 24hr in | rain mn in | humidity % | barometer mb |
| 20260509090704 | 55 | 260 | 1.7 | 4.3 | 0.00 | 0.00 | 0.00 | 81 | 1023.2 |
| 20260509090204 | 55 | 263 | 1.7 | 4.3 | 0.00 | 0.00 | 0.00 | 81 | 1023.3 |
| 20260509083705 | 55 | 278 | 0.9 | 2.6 | 0.00 | 0.00 | 0.00 | 81 | 1023.3 |
| 20260509083204 | 55 | 183 | 0.9 | 5.2 | 0.00 | 0.00 | 0.00 | 81 | 1023.2 |
| 20260509080704 | 56 | 176 | 0.9 | 4.3 | 0.00 | 0.00 | 0.00 | 80 | 1023.2 |
| 20260509080204 | 55 | 273 | 1.7 | 5.2 | 0.00 | 0.00 | 0.00 | 80 | 1023.3 |
| 20260509073704 | 55 | 179 | 2.6 | 7.0 | 0.00 | 0.00 | 0.00 | 79 | 1023.1 |
| 20260509073204 | 55 | 186 | 1.7 | 4.3 | 0.00 | 0.00 | 0.00 | 79 | 1023.1 |
| 20260509070704 | 55 | 117 | 0.9 | 2.6 | 0.00 | 0.00 | 0.00 | 80 | 1023.0 |
| 20260509070204 | 55 | 117 | 0.9 | 2.6 | 0.00 | 0.00 | 0.00 | 80 | 1023.0 |
| 20260509063705 | 54 | 143 | 0.0 | 0.9 | 0.00 | 0.00 | 0.00 | 80 | 1022.9 |
| 20260509060704 | 55 | 143 | 0.9 | 1.7 | 0.00 | 0.00 | 0.00 | 78 | 1022.8 |
| 20260509060204 | 55 | 135 | 0.0 | 1.7 | 0.00 | 0.00 | 0.00 | 78 | 1022.8 |
| 20260509053704 | 56 | 182 | 0.9 | 2.6 | 0.00 | 0.00 | 0.00 | 76 | 1022.7 |
| 20260509053204 | 56 | 234 | 0.9 | 4.3 | 0.00 | 0.00 | 0.00 | 76 | 1022.7 |
| 20260509050704 | 57 | 213 | 1.7 | 2.6 | 0.00 | 0.00 | 0.00 | 74 | 1022.6 |
| 20260509050204 | 57 | 163 | 0.9 | 2.6 | 0.00 | 0.00 | 0.00 | 74 | 1022.6 |
| 20260509043704 | 57 | 244 | 0.9 | 2.6 | 0.00 | 0.00 | 0.00 | 73 | 1022.5 |
| 20260509033704 | 59 | 185 | 0.9 | 2.6 | 0.00 | 0.00 | 0.00 | 67 | 1021.9 |
| 20260509033204 | 59 | 189 | 0.9 | 5.2 | 0.00 | 0.00 | 0.00 | 66 | 1021.8 |
| 20260509030704 | 61 | 317 | 0.9 | 2.6 | 0.00 | 0.00 | 0.00 | 63 | 1021.6 |
| 20260509030204 | 61 | 252 | 0.9 | 8.7 | 0.00 | 0.00 | 0.00 | 62 | 1021.6 |
| 20260509023704 | 62 | 241 | 2.6 | 7.0 | 0.00 | 0.00 | 0.00 | 60 | 1021.4 |
| 20260509023204 | 62 | 258 | 3.5 | 10.4 | 0.00 | 0.00 | 0.00 | 60 | 1021.4 |
| 20260509020703 | 64 | 221 | 4.3 | 8.7 | 0.00 | 0.00 | 0.00 | 55 | 1021.4 |
| 20260509020203 | 64 | 199 | 1.7 | 10.4 | 0.00 | 0.00 | 0.00 | 56 | 1021.4 |
| 20260509013704 | 65 | 276 | 2.6 | 8.7 | 0.00 | 0.00 | 0.00 | 54 | 1021.3 |
| 20260509013204 | 65 | 213 | 5.2 | 12.2 | 0.00 | 0.00 | 0.00 | 52 | 1021.3 |
| 20260509010704 | 66 | 251 | 3.5 | 10.4 | 0.00 | 0.00 | 0.00 | 51 | 1021.4 |
| 20260509000704 | 66 | 234 | 4.3 | 10.4 | 0.00 | 0.00 | 0.00 | 52 | 1021.5 |
| 20260509000204 | 65 | 236 | 2.6 | 12.2 | 0.00 | 0.00 | 0.00 | 52 | 1021.5 |
| 20260508233704 | 64 | 280 | 3.5 | 7.8 | 0.00 | 0.00 | 0.00 | 52 | 1021.4 |
| 20260508230704 | 66 | 234 | 4.3 | 12.2 | 0.00 | 0.00 | 0.00 | 51 | 1021.6 |
| 20260508230204 | 65 | 254 | 2.6 | 12.2 | 0.00 | 0.00 | 0.00 | 51 | 1021.5 |
| 20260508223705 | 65 | 183 | 4.3 | 10.4 | 0.00 | 0.00 | 0.00 | 52 | 1021.6 |
| 20260508223204 | 65 | 229 | 4.3 | 11.3 | 0.00 | 0.00 | 0.00 | 51 | 1021.6 |
| 20260508220203 | 65 | 267 | 6.1 | 17.4 | 0.00 | 0.00 | 0.00 | 51 | 1021.5 |
| 20260508213703 | 62 | 284 | 5.2 | 12.2 | 0.00 | 0.00 | 0.00 | 55 | 1021.5 |
| 20260508213205 | 62 | 282 | 6.1 | 14.8 | 0.00 | 0.00 | 0.00 | 55 | 1021.5 |
| 20260508210204 | 62 | 234 | 2.6 | 14.8 | 0.00 | 0.00 | 0.00 | 56 | 1021.4 |
| 20260508203704 | 60 | 276 | 4.3 | 7.8 | 0.00 | 0.00 | 0.00 | 57 | 1021.3 |
| 20260508203204 | 60 | 266 | 3.5 | 12.2 | 0.00 | 0.00 | 0.00 | 58 | 1021.4 |
| 20260508200703 | 58 | 194 | 4.3 | 12.2 | 0.00 | 0.00 | 0.00 | 61 | 1021.4 |
| 20260508200205 | 58 | 223 | 5.2 | 14.8 | 0.00 | 0.00 | 0.00 | 61 | 1021.4 |
| 20260508193704 | 58 | 254 | 4.3 | 11.3 | 0.00 | 0.00 | 0.00 | 61 | 1021.2 |
| 20260508193205 | 57 | 218 | 4.3 | 10.4 | 0.00 | 0.00 | 0.00 | 63 | 1021.3 |
| 20260508190704 | 56 | 210 | 5.2 | 13.0 | 0.00 | 0.00 | 0.00 | 66 | 1021.2 |
| 20260508190204 | 56 | 239 | 5.2 | 13.0 | 0.00 | 0.00 | 0.00 | 66 | 1021.2 |
| 20260508183204 | 56 | 247 | 2.6 | 10.4 | 0.00 | 0.00 | 0.00 | 68 | 1021.1 |
| 20260508180703 | 56 | 223 | 4.3 | 10.4 | 0.00 | 0.00 | 0.00 | 68 | 1020.7 |
| 20260508180203 | 55 | 181 | 4.3 | 12.2 | 0.00 | 0.00 | 0.00 | 68 | 1020.7 |
| 20260508173703 | 54 | 225 | 2.6 | 8.7 | 0.00 | 0.00 | 0.00 | 73 | 1020.6 |
| 20260508173204 | 54 | 228 | 3.5 | 8.7 | 0.00 | 0.00 | 0.00 | 73 | 1020.5 |
| 20260508170704 | 54 | 167 | 1.7 | 6.1 | 0.00 | 0.00 | 0.00 | 74 | 1020.0 |
| 20260508170204 | 54 | 171 | 2.6 | 10.4 | 0.00 | 0.00 | 0.00 | 74 | 1020.0 |
| 20260508163704 | 54 | 132 | 4.3 | 7.0 | 0.00 | 0.00 | 0.00 | 73 | 1019.8 |
| 20260508160704 | 54 | 173 | 2.6 | 5.2 | 0.00 | 0.00 | 0.00 | 75 | 1019.6 |
| 20260508160204 | 54 | 252 | 2.6 | 7.8 | 0.00 | 0.00 | 0.00 | 75 | 1019.6 |
| 20260508153704 | 53 | 171 | 3.5 | 6.1 | 0.00 | 0.00 | 0.00 | 76 | 1019.8 |
| 20260508150204 | 52 | 176 | 3.5 | 7.8 | 0.00 | 0.00 | 0.00 | 78 | 1019.8 |
| 20260508143704 | 51 | 167 | 3.5 | 10.4 | 0.00 | 0.00 | 0.00 | 81 | 1019.5 |
| 20260508143203 | 51 | 223 | 2.6 | 8.7 | 0.00 | 0.00 | 0.00 | 81 | 1019.4 |
| 20260508140204 | 51 | 171 | 2.6 | 7.0 | 0.00 | 0.00 | 0.00 | 82 | 1018.7 |
| 20260508133704 | 51 | 186 | 1.7 | 8.7 | 0.00 | 0.00 | 0.00 | 82 | 1018.4 |
| 20260508133204 | 52 | 166 | 1.7 | 7.0 | 0.00 | 0.00 | 0.00 | 82 | 1018.3 |
| 20260508130705 | 51 | 162 | 3.5 | 7.8 | 0.00 | 0.00 | 0.00 | 82 | 1017.9 |
| 20260508123703 | 51 | 138 | 0.9 | 2.6 | 0.00 | 0.00 | 0.00 | 84 | 1017.6 |
| 20260508123204 | 51 | 153 | 0.0 | 2.6 | 0.00 | 0.00 | 0.00 | 84 | 1017.6 |
| 20260508120704 | 51 | 136 | 1.7 | 6.1 | 0.00 | 0.00 | 0.00 | 84 | 1017.5 |
| 20260508120204 | 51 | 86 | 0.9 | 2.6 | 0.00 | 0.00 | 0.00 | 84 | 1017.5 |
| 20260508113205 | 52 | 128 | 1.7 | 2.6 | 0.00 | 0.00 | 0.00 | 85 | 1017.2 |
| 20260508110704 | 51 | 126 | 0.9 | 2.6 | 0.00 | 0.00 | 0.00 | 85 | 1017.0 |
| 20260508110204 | 51 | 96 | 0.9 | 2.6 | 0.00 | 0.00 | 0.00 | 84 | 1016.9 |
| 20260508103704 | 52 | 128 | 0.9 | 1.7 | 0.00 | 0.00 | 0.00 | 84 | 1016.7 |
| 20260508103204 | 52 | 94 | 0.9 | 2.6 | 0.00 | 0.00 | 0.00 | 84 | 1016.7 |
| 20260508100704 | 52 | 98 | 1.7 | 2.6 | 0.00 | 0.00 | 0.00 | 83 | 1016.4 |
| 20260508100204 | 52 | 106 | 0.0 | 2.6 | 0.00 | 0.00 | 0.00 | 83 | 1016.4 |
| 20260508093703 | 53 | 144 | 0.0 | 1.7 | 0.00 | 0.00 | 0.00 | 82 | 1016.4 |
| 20260508093204 | 53 | 144 | 0.0 | 2.6 | 0.00 | 0.00 | 0.00 | 82 | 1016.4 |